User: anonymous   Login
Location: Unspecified
(0.0000°N, 0.0000°E)
Time: 23:49:43
(UTC+00:00)
Language:

ECHOSTAR XVII - Orbit

View from above orbital plane
View from above orbital plane
View from above satellite
View from above satellite

Ground track
Ground track

The orbit is defined by the following mean orbital elements,

1 41592U          26144.97405737 +.00000000 +00000-0 +00000-0 0 00003
2 41592   0.0150 322.3747 0001572 105.5065 103.9719  1.00269056    03
Epoch (UTC): 24 May 2026 23:22:38
Eccentricity: 0.0001572
inclination: 0.0150°
perigee height: 35781 km
apogee height: 35794 km
right ascension of ascending node: 322.3747°
argument of perigee: 105.5065°
revolutions per day: 1.00269056
mean anomaly at epoch: 103.9719°

The dashed part of the orbit path shows where the satellite is in the earth's shadow,  

DLR